Holland, MI

8:44 PM EDT on August 28, 2016 (GMT -0400)
Tulip City

Weather History for KBIV - November, 2012

Change the Weather History Date:

Tuesday, November 27, 2012

  Actual Average Record
Temperature  
Mean Temperature 32 °F 37 °F  
Max Temperature 38 °F 43 °F 67 °F (1990)
Min Temperature 26 °F 32 °F 11 °F (1977)
Degree Days  
Heating Degree Days 33 28  
Month to date heating degree days 613 612  
Since 1 July heating degree days 1161 1137  
Cooling Degree Days 0 0  
Month to date cooling degree days 0 0  
Year to date cooling degree days 1067 693  
Moisture  
Dew Point 20 °F    
Average Humidity 64    
Maximum Humidity 75    
Minimum Humidity 52    
Precipitation  
Precipitation 0.00 in 0.10 in 1.05 in (1966)
Month to date precipitation 0.75 3.19  
Year to date precipitation 30.84 33.89  
Sea Level Pressure  
Sea Level Pressure 30.32 in    
Wind  
Wind Speed 6 mph (SW)    
Max Wind Speed 16 mph    
Max Gust Speed 21 mph    
Visibility 10 miles    
Events      
T = Trace of Precipitation, MM = Missing Value Source: NWS Daily Summary

Daily Weather History Graph

Daily Weather History Graph

Search for Another Location

Airport or City:

Trip Planner

Search our weather history database for the weather conditions in past years. The results will help you decide how hot, cold, wet, or windy it might be!

Date:

Astronomy

Nov. 27, 2012 Rise Set
Actual Time 7:51 AM EST 5:12 PM EST
Civil Twilight 7:19 AM EST 5:44 PM EST
Nautical Twilight 6:44 AM EST 6:19 PM EST
Astronomical Twilight 6:10 AM EST 6:53 PM EST
Moon 4:44 PM EST (11/27) 6:55 AM EST (11/27)
Length of Visible Light 10h 24m
Length of Day
9h 21m
Waxing Gibbous, 99% of the Moon is Illuminated
Nov 27
Waxing Gibbous
Nov 28
Full
Dec 6
Last Quarter
Dec 13
New
Dec 20
First Quarter

Hourly Weather History & Observations

Time (EST) Temp. Windchill Dew Point Humidity Pressure Visibility Wind Dir Wind Speed Gust Speed Precip Events Conditions
12:53 AM 30.9 °F 23.5 °F 17.1 °F 57% 30.35 in 10.0 mi NNE 8.1 mph - N/A   Overcast
1:53 AM 30.0 °F 24.1 °F 17.1 °F 59% 30.35 in 10.0 mi NNE 5.8 mph - N/A   Overcast
2:53 AM 30.0 °F 26.5 °F 15.1 °F 54% 30.35 in 10.0 mi NE 3.5 mph - N/A   Overcast
3:53 AM 30.0 °F - 15.1 °F 54% 30.35 in 10.0 mi Calm Calm - N/A   Overcast
4:53 AM 28.9 °F - 16.0 °F 58% 30.35 in 10.0 mi Calm Calm - N/A   Overcast
5:53 AM 28.9 °F - 18.0 °F 64% 30.36 in 10.0 mi Calm Calm - N/A   Overcast
7:53 AM 28.9 °F - 18.0 °F 64% 30.37 in 10.0 mi Calm Calm - N/A   Overcast
8:53 AM 28.9 °F 25.2 °F 18.0 °F 64% 30.37 in 10.0 mi South 3.5 mph - N/A   Mostly Cloudy
9:53 AM 32.0 °F 26.4 °F 18.0 °F 56% 30.38 in 10.0 mi South 5.8 mph - N/A   Mostly Cloudy
10:53 AM 34.0 °F 28.0 °F 19.9 °F 56% 30.39 in 10.0 mi SW 6.9 mph - N/A   Overcast
11:53 AM 35.1 °F 28.6 °F 19.9 °F 54% 30.38 in 10.0 mi West 8.1 mph - N/A   Overcast
12:53 PM 37.0 °F 29.3 °F 21.0 °F 52% 30.36 in 10.0 mi WSW 11.5 mph - N/A   Overcast
1:53 PM 35.1 °F 26.9 °F 21.9 °F 59% 30.35 in 10.0 mi WSW 11.5 mph - N/A   Overcast
2:49 PM 35.6 °F 29.2 °F 23.0 °F 60% 30.29 in 10.0 mi WSW 8.1 mph - N/A   Overcast
3:16 PM 35.6 °F 28.6 °F 21.2 °F 56% 30.28 in 10.0 mi WSW 9.2 mph - N/A   Overcast
3:48 PM 33.8 °F 26.4 °F 21.2 °F 60% 30.27 in 10.0 mi SW 9.2 mph - N/A   Mostly Cloudy
3:53 PM 34.0 °F 26.0 °F 21.0 °F 59% 30.30 in 10.0 mi SW 10.4 mph - N/A   Mostly Cloudy
4:15 PM 33.8 °F 26.4 °F 19.4 °F 56% 30.27 in 10.0 mi WSW 9.2 mph - N/A   Partly Cloudy
4:53 PM 33.1 °F 26.9 °F 19.9 °F 59% 30.29 in 10.0 mi WSW 6.9 mph - N/A   Clear
5:53 PM 30.9 °F 27.5 °F 21.0 °F 67% 30.29 in 10.0 mi SSW 3.5 mph - N/A   Clear
6:53 PM 30.0 °F 26.5 °F 21.0 °F 69% 30.27 in 10.0 mi South 3.5 mph - N/A   Clear
7:53 PM 26.1 °F 19.4 °F 19.9 °F 78% 30.27 in 10.0 mi SSE 5.8 mph - N/A   Clear
8:53 PM 27.0 °F 21.6 °F 19.9 °F 75% 30.27 in 10.0 mi South 4.6 mph - N/A   Clear
9:53 PM 28.9 °F 21.9 °F 21.0 °F 72% 30.26 in 10.0 mi South 6.9 mph - N/A   Clear
10:53 PM 30.0 °F 21.7 °F 21.9 °F 72% 30.24 in 10.0 mi South 9.2 mph - N/A   Mostly Cloudy
11:53 PM 36.0 °F 26.7 °F 21.9 °F 57% 30.23 in 10.0 mi WSW 15.0 mph - N/A   Overcast